Madera, CA

4:57 PM PST on December 12, 2017 (GMT -0800)
Madera Municipal

Weather History for KMAE - March, 2014

Change the Weather History Date:

Monday, March 24, 2014

  Actual Average Record
Temperature  
Mean Temperature 63 °F 55 °F  
Max Temperature 81 °F 67 °F 82 °F (1956)
Min Temperature 44 °F 42 °F 36 °F (2009)
Degree Days  
Heating Degree Days 2    
Month to date heating degree days 133  
Since 1 July heating degree days 1960  
Cooling Degree Days 0    
Month to date cooling degree days 0  
Year to date cooling degree days 0  
Growing Degree Days 12 (Base 50)    
Moisture  
Dew Point 42 °F    
Average Humidity 54    
Maximum Humidity 86    
Minimum Humidity 21    
Precipitation  
Precipitation 0.00 in 0.04 in 0.42 in (2011)
Month to date precipitation 0.19 1.49  
Year to date precipitation 2.58 6.07  
Since 1 July precipitation 3.55  
Snow  
Snow 0.00 in - - ()
Month to date snowfall 0.0  
Since 1 July snowfall 0.0  
Snow Depth 0.00 in    
Sea Level Pressure  
Sea Level Pressure 30.06 in    
Wind  
Wind Speed 4 mph (NW)    
Max Wind Speed 13 mph    
Max Gust Speed 17 mph    
Visibility 10 miles    
Events      
T = Trace of Precipitation, MM = Missing Value Source: NWS Daily Summary

Daily Weather History Graph

Daily Weather History Graph

Search for Another Location

Airport or City:

Trip Planner

Search our weather history database for the weather conditions in past years. The results will help you decide how hot, cold, wet, or windy it might be!

Date:

Astronomy

Mar. 24, 2014 Rise Set
Actual Time 6:57 AM PDT 7:15 PM PDT
Civil Twilight 6:31 AM PDT 7:41 PM PDT
Nautical Twilight 6:01 AM PDT 8:12 PM PDT
Astronomical Twilight 5:30 AM PDT 8:43 PM PDT
Moon 2:24 AM PDT (3/24) 12:54 PM PDT (3/24)
Length of Visible Light 13h 09m
Length of Day
12h 18m
Last Quarter, 42% of the Moon is Illuminated
Mar 24
Last Quarter
Mar 30
New
Apr 7
First Quarter
Apr 15
Full
Apr 22
Last Quarter

Hourly Weather History & Observations

Time (PDT) Temp. Windchill Dew Point Humidity Pressure Visibility Wind Dir Wind Speed Gust Speed Precip Events Conditions
12:53 AM 53.1 °F - 41.0 °F 64% 30.09 in 10.0 mi North 4.6 mph - N/A   Clear
1:53 AM 46.0 °F 43.1 °F 39.9 °F 79% 30.09 in 10.0 mi WNW 5.8 mph - N/A   Clear
2:53 AM 48.0 °F - 41.0 °F 77% 30.09 in 10.0 mi Calm Calm - N/A   Clear
3:53 AM 46.0 °F - 41.0 °F 83% 30.08 in 10.0 mi Calm Calm - N/A   Clear
4:53 AM 46.0 °F - 39.9 °F 79% 30.09 in 10.0 mi Calm Calm - N/A   Clear
5:53 AM 48.0 °F - 39.9 °F 74% 30.09 in 10.0 mi ENE 4.6 mph - N/A   Clear
6:53 AM 44.1 °F 42.5 °F 37.9 °F 79% 30.11 in 10.0 mi SE 3.5 mph - N/A   Clear
7:53 AM 46.0 °F - 42.1 °F 86% 30.12 in 10.0 mi Calm Calm - N/A   Clear
8:53 AM 55.0 °F - 42.1 °F 62% 30.13 in 10.0 mi Calm Calm - N/A   Clear
9:53 AM 62.1 °F - 41.0 °F 46% 30.14 in 10.0 mi Calm Calm - N/A   Clear
10:53 AM 68.0 °F - 43.0 °F 40% 30.14 in 10.0 mi Variable 3.5 mph - N/A   Clear
11:53 AM 71.1 °F - 42.1 °F 35% 30.12 in 10.0 mi NW 4.6 mph - N/A   Clear
12:53 PM 75.9 °F - 41.0 °F 29% 30.10 in 10.0 mi NW 5.8 mph - N/A   Clear
1:53 PM 78.1 °F - 44.1 °F 30% 30.07 in 10.0 mi WNW 8.1 mph - N/A   Clear
2:53 PM 79.0 °F - 39.0 °F 24% 30.04 in 10.0 mi WNW 8.1 mph - N/A   Clear
3:53 PM 80.1 °F - 39.0 °F 23% 30.01 in 10.0 mi NW 10.4 mph - N/A   Clear
4:53 PM 81.0 °F - 37.9 °F 21% 29.99 in 10.0 mi WNW 10.4 mph - N/A   Clear
5:53 PM 79.0 °F - 41.0 °F 26% 29.98 in 10.0 mi WNW 10.4 mph - N/A   Clear
6:53 PM 75.0 °F - 42.1 °F 31% 29.97 in 10.0 mi WNW 6.9 mph - N/A   Clear
7:53 PM 64.9 °F - 43.0 °F 45% 29.98 in 10.0 mi NW 5.8 mph - N/A   Clear
8:53 PM 64.0 °F - 44.1 °F 48% 30.00 in 10.0 mi NW 5.8 mph - N/A   Clear
9:53 PM 60.1 °F - 45.0 °F 57% 29.99 in 10.0 mi NW 3.5 mph - N/A   Clear
10:53 PM 57.0 °F - 46.9 °F 69% 29.99 in 10.0 mi Calm Calm - N/A   Clear
11:53 PM 54.0 °F - 46.9 °F 77% 30.00 in 10.0 mi Calm Calm - N/A   Clear